Location: Valladolid
(41.6523°N, 4.7245°W)
Time: 17:48:12
(UTC+02:00)

ISS - Visible Passes

Search period start: 19 June 2021 00:00
Search period end: 29 June 2021 00:00
Orbit: 417 x 422 km, 51.6° (Epoch: 18 June)

Date Brightness Start Highest point End Pass type
(mag) Time Alt. Az. Time Alt. Az. Time Alt. Az.
25 Jun -1.2 05:45:55 10° SSE 05:47:37 13° SE 05:49:19 10° E visible
27 Jun -2.8 05:46:24 12° SSW 05:49:10 38° SE 05:52:19 10° ENE visible
28 Jun -2.1 05:00:47 19° SSE 05:01:49 22° SE 05:04:32 10° E visible
